,,,PA_Meas_PMT16A,,PR_Meas_QMR101_102,,RH_Meas_QMH101,,SR_Meas_QMS101,,TA_Meas_QMH101,,GenWind,,GenWind,
date,time,status,PA,status,PR,status,RH,status,SR,status,TA,status,DirAvg,status,SpdAvg,
2010-11-03, 00:00:04,VALID,1000.22,VALID,0,VALID,91.9903,VALID,0,VALID,23.6036,VALID,74,VALID,0.574219,
2010-11-03, 00:01:04,VALID,1000.23,VALID,0,VALID,91.8911,VALID,0,VALID,23.6409,VALID,111,VALID,0.721875,
2010-11-03, 00:02:04,VALID,1000.22,VALID,0,VALID,91.7233,VALID,0,VALID,23.6817,VALID,138,VALID,0.757031,
2010-11-03, 00:03:04,VALID,1000.22,VALID,0,VALID,91.5097,VALID,0,VALID,23.7207,VALID,128,VALID,1.04062,
2010-11-03, 00:04:04,VALID,1000.21,VALID,0,VALID,91.174,VALID,0,VALID,23.7402,VALID,146,VALID,1.35234,
2010-11-03, 00:05:04,VALID,1000.18,VALID,0,VALID,90.884,VALID,0,VALID,23.7793,VALID,134,VALID,1.12969,
2010-11-03, 00:06:04,VALID,1000.16,VALID,0,VALID,90.6017,VALID,0,VALID,23.7775,VALID,134,VALID,0.888672,
2010-11-03, 00:07:04,VALID,1000.19,VALID,0,VALID,90.4568,VALID,0,VALID,23.7988,VALID,134,VALID,0.855469,
2010-11-03, 00:08:04,VALID,1000.18,VALID,0,VALID,90.3652,VALID,0,VALID,23.7988,VALID,133,VALID,0.727734,
2010-11-03, 00:09:04,VALID,1000.13,VALID,0,VALID,90.2431,VALID,0,VALID,23.7793,VALID,108,VALID,0.825391,
2010-11-03, 00:10:04,VALID,1000.18,VALID,0,VALID,90.2355,VALID,0,VALID,23.7597,VALID,108,VALID,0.592578,
2010-11-03, 00:11:04,VALID,1000.13,VALID,0,VALID,90.0906,VALID,0,VALID,23.7207,VALID,108,VALID,0.252734,
2010-11-03, 00:12:04,VALID,1000.13,VALID,0,VALID,89.999,VALID,0,VALID,23.6622,VALID,108,VALID,0.247266,
2010-11-03, 00:13:04,VALID,1000.12,VALID,0,VALID,90.205,VALID,0,VALID,23.6427,VALID,108,VALID,0.373047,
2010-11-03, 00:14:04,VALID,1000.13,VALID,0,VALID,90.3805,VALID,0,VALID,23.6232,VALID,108,VALID,0.18125,
2010-11-03, 00:15:04,VALID,1000.1,VALID,0,VALID,90.5102,VALID,0,VALID,23.6036,VALID,108,VALID,0.233984,
2010-11-03, 00:16:04,VALID,1000.07,VALID,0,VALID,90.6551,VALID,0,VALID,23.5841,VALID,108,VALID,0.185937,
2010-11-03, 00:17:04,VALID,1000.04,VALID,0,VALID,90.823,VALID,0,VALID,23.5646,VALID,108,VALID,0.403125,
2010-11-03, 00:18:04,VALID,1000.04,VALID,0,VALID,91.0443,VALID,0,VALID,23.5646,VALID,108,VALID,0.437891,
2010-11-03, 00:19:04,VALID,1000.03,VALID,0,VALID,91.2884,VALID,0,VALID,23.5841,VALID,110,VALID,0.574609,
2010-11-03, 00:20:04,VALID,999.983,VALID,0,VALID,91.4868,VALID,0,VALID,23.5841,VALID,118,VALID,0.783984,
2010-11-03, 00:21:04,VALID,999.986,VALID,0,VALID,91.6088,VALID,0,VALID,23.6036,VALID,128,VALID,0.628125,
2010-11-03, 00:22:04,VALID,999.99,VALID,0,VALID,91.6241,VALID,0,VALID,23.6232,VALID,128,VALID,0.735547,
2010-11-03, 00:23:04,VALID,999.941,VALID,0,VALID,91.5936,VALID,0,VALID,23.6232,VALID,129,VALID,0.658594,
2010-11-03, 00:24:04,VALID,999.938,VALID,0,VALID,91.4639,VALID,0,VALID,23.6036,VALID,144,VALID,0.799219,
2010-11-03, 00:25:04,VALID,999.928,VALID,0,VALID,91.2884,VALID,0,VALID,23.6036,VALID,155,VALID,0.696875,
2010-11-03, 00:26:04,VALID,999.91,VALID,0,VALID,91.1587,VALID,0,VALID,23.6232,VALID,155,VALID,0.683984,
2010-11-03, 00:27:04,VALID,999.902,VALID,0,VALID,90.9832,VALID,0,VALID,23.6232,VALID,155,VALID,0.539063,
2010-11-03, 00:28:04,VALID,999.894,VALID,0,VALID,90.9146,VALID,0,VALID,23.6427,VALID,155,VALID,0.417578,
2010-11-03, 00:29:04,VALID,999.861,VALID,0,VALID,90.8764,VALID,0,VALID,23.6622,VALID,144,VALID,0.305469,
2010-11-03, 00:30:04,VALID,999.836,VALID,0,VALID,90.6933,VALID,0,VALID,23.6622,VALID,144,VALID,0.280469,
2010-11-03, 00:31:04,VALID,999.816,VALID,0,VALID,90.6551,VALID,0,VALID,23.6622,VALID,144,VALID,0.261328,
2010-11-03, 00:32:04,VALID,999.821,VALID,0,VALID,90.5712,VALID,0,VALID,23.6622,VALID,144,VALID,0.169531,
2010-11-03, 00:33:04,VALID,999.752,VALID,0,VALID,90.5178,VALID,0,VALID,23.6214,VALID,144,VALID,0,
2010-11-03, 00:34:04,VALID,999.73,VALID,0,VALID,90.4186,VALID,0,VALID,23.6232,VALID,144,VALID,0,
2010-11-03, 00:35:04,VALID,999.719,VALID,0,VALID,90.2966,VALID,0,VALID,23.5841,VALID,144,VALID,0.0714844,
2010-11-03, 00:36:04,VALID,999.696,VALID,0,VALID,90.5026,VALID,0,VALID,23.6036,VALID,144,VALID,0.142969,
2010-11-03, 00:37:04,VALID,999.663,VALID,0,VALID,90.6857,VALID,0,VALID,23.5841,VALID,144,VALID,0.208594,
2010-11-03, 00:38:04,VALID,999.644,VALID,0,VALID,90.8459,VALID,0,VALID,23.5646,VALID,144,VALID,0.35,
2010-11-03, 00:39:04,VALID,999.654,VALID,0,VALID,90.9222,VALID,0,VALID,23.5646,VALID,144,VALID,0.400781,
2010-11-03, 00:40:04,VALID,999.629,VALID,0,VALID,91.0519,VALID,0,VALID,23.5646,VALID,144,VALID,0.34375,
2010-11-03, 00:41:04,VALID,999.623,VALID,0,VALID,91.0824,VALID,0,VALID,23.5256,VALID,144,VALID,0.501562,
2010-11-03, 00:42:04,VALID,999.605,VALID,0,VALID,91.1358,VALID,0,VALID,23.5256,VALID,144,VALID,0.470313,
2010-11-03, 00:43:04,VALID,999.615,VALID,0,VALID,91.1816,VALID,0,VALID,23.5256,VALID,144,VALID,0.444922,
2010-11-03, 00:44:04,VALID,999.585,VALID,0,VALID,91.2121,VALID,0,VALID,23.4671,VALID,144,VALID,0.357422,
2010-11-03, 00:45:04,VALID,999.567,VALID,0,VALID,91.2121,VALID,0,VALID,23.4671,VALID,144,VALID,0.429688,
2010-11-03, 00:46:04,VALID,999.525,VALID,0,VALID,91.1968,VALID,0,VALID,23.4475,VALID,144,VALID,0.370703,
2010-11-03, 00:47:04,VALID,999.546,VALID,0,VALID,91.1587,VALID,0,VALID,23.4085,VALID,144,VALID,0.391406,
2010-11-03, 00:48:04,VALID,999.523,VALID,0,VALID,91.2274,VALID,0,VALID,23.3695,VALID,144,VALID,0.538672,
2010-11-03, 00:49:04,VALID,999.552,VALID,0,VALID,91.296,VALID,0,VALID,23.3305,VALID,42,VALID,0.572656,
2010-11-03, 00:50:04,VALID,999.52,VALID,0,VALID,91.3876,VALID,0,VALID,23.2719,VALID,42,VALID,0.542188,
2010-11-03, 00:51:04,VALID,999.511,VALID,0,VALID,91.4715,VALID,0,VALID,23.2329,VALID,42,VALID,0.507813,
2010-11-03, 00:52:04,VALID,999.497,VALID,0,VALID,91.6088,VALID,0,VALID,23.1939,VALID,42,VALID,0.390625,
2010-11-03, 00:53:04,VALID,999.487,VALID,0,VALID,91.7767,VALID,0,VALID,23.1744,VALID,42,VALID,0.209766,
2010-11-03, 00:54:04,VALID,999.479,VALID,0,VALID,91.9751,VALID,0,VALID,23.1939,VALID,42,VALID,0.107422,
2010-11-03, 00:55:04,VALID,999.471,VALID,0,VALID,92.12,VALID,0,VALID,23.1726,VALID,42,VALID,0,
2010-11-03, 00:56:04,VALID,999.427,VALID,0,VALID,92.2497,VALID,0,VALID,23.1744,VALID,42,VALID,0,
2010-11-03, 00:57:04,VALID,999.434,VALID,0,VALID,92.3794,VALID,0,VALID,23.1939,VALID,42,VALID,0.126172,
2010-11-03, 00:58:04,VALID,999.415,VALID,0,VALID,92.5015,VALID,0,VALID,23.2134,VALID,104,VALID,0.519141,
2010-11-03, 00:59:04,VALID,999.428,VALID,0,VALID,92.5931,VALID,0,VALID,23.2117,VALID,130,VALID,0.501953,
2010-11-03, 01:00:04,VALID,999.424,VALID,0,VALID,92.6465,VALID,0,VALID,23.2312,VALID,130,VALID,0.456641,
2010-11-03, 01:01:04,VALID,999.413,VALID,0,VALID,92.6694,VALID,0,VALID,23.311,VALID,135,VALID,0.714844,
2010-11-03, 01:02:04,VALID,999.374,VALID,0,VALID,92.6617,VALID,0,VALID,23.35,VALID,139,VALID,0.617969,
2010-11-03, 01:03:04,VALID,999.422,VALID,0,VALID,92.6388,VALID,0,VALID,23.3677,VALID,139,VALID,0.520312,
2010-11-03, 01:04:04,VALID,999.379,VALID,0,VALID,92.5778,VALID,0,VALID,23.428,VALID,149,VALID,0.577734,
2010-11-03, 01:05:04,VALID,999.425,VALID,0,VALID,92.4786,VALID,0,VALID,23.4263,VALID,149,VALID,0.615234,
2010-11-03, 01:06:04,VALID,999.4,VALID,0,VALID,92.3642,VALID,0,VALID,23.4671,VALID,149,VALID,0.368359,
2010-11-03, 01:07:04,VALID,999.394,VALID,0,VALID,92.1811,VALID,0,VALID,23.4458,VALID,149,VALID,0.660937,
2010-11-03, 01:08:04,VALID,999.417,VALID,0,VALID,91.9827,VALID,0,VALID,23.4671,VALID,149,VALID,0.703125,
2010-11-03, 01:09:04,VALID,999.398,VALID,0,VALID,91.7767,VALID,0,VALID,23.4866,VALID,149,VALID,0.493359,
2010-11-03, 01:10:04,VALID,999.364,VALID,0,VALID,91.5554,VALID,0,VALID,23.4866,VALID,149,VALID,0.424609,
2010-11-03, 01:11:04,VALID,999.348,VALID,0,VALID,91.4868,VALID,0,VALID,23.5256,VALID,149,VALID,0.526953,
2010-11-03, 01:12:04,VALID,999.314,VALID,0,VALID,91.3723,VALID,0,VALID,23.5238,VALID,149,VALID,0.459766,
2010-11-03, 01:13:04,VALID,999.271,VALID,0,VALID,91.2579,VALID,0,VALID,23.5646,VALID,149,VALID,0.658984,
2010-11-03, 01:14:04,VALID,999.241,VALID,0,VALID,91.174,VALID,0,VALID,23.6232,VALID,149,VALID,0.535547,
2010-11-03, 01:15:04,VALID,999.228,VALID,0,VALID,90.9909,VALID,0,VALID,23.6036,VALID,149,VALID,0.511719,
2010-11-03, 01:16:04,VALID,999.222,VALID,0,VALID,90.8383,VALID,0,VALID,23.6019,VALID,137,VALID,0.440234,
2010-11-03, 01:17:04,VALID,999.198,VALID,0,VALID,90.7391,VALID,0,VALID,23.6019,VALID,137,VALID,0.518359,
2010-11-03, 01:18:04,VALID,999.195,VALID,0,VALID,90.6094,VALID,0,VALID,23.6232,VALID,137,VALID,0.302734,
2010-11-03, 01:19:04,VALID,999.193,VALID,0,VALID,90.5712,VALID,0,VALID,23.6019,VALID,137,VALID,0.60625,
2010-11-03, 01:20:04,VALID,999.182,VALID,0,VALID,90.5941,VALID,0,VALID,23.6232,VALID,137,VALID,0.346484,
2010-11-03, 01:21:04,VALID,999.2,VALID,0,VALID,90.6017,VALID,0,VALID,23.6232,VALID,137,VALID,0.1375,
2010-11-03, 01:22:04,VALID,999.179,VALID,0,VALID,90.5865,VALID,0,VALID,23.5823,VALID,137,VALID,0.135937,
2010-11-03, 01:23:04,VALID,999.159,VALID,0,VALID,90.617,VALID,0,VALID,23.5841,VALID,137,VALID,0.125781,
2010-11-03, 01:24:04,VALID,999.135,VALID,0,VALID,90.6704,VALID,0,VALID,23.5841,VALID,137,VALID,0,
2010-11-03, 01:25:04,VALID,999.116,VALID,0,VALID,90.7162,VALID,0,VALID,23.5646,VALID,137,VALID,0,
2010-11-03, 01:26:04,VALID,999.132,VALID,0,VALID,90.8077,VALID,0,VALID,23.5256,VALID,137,VALID,0,
2010-11-03, 01:27:04,VALID,999.131,VALID,0,VALID,90.8993,VALID,0,VALID,23.5061,VALID,137,VALID,0.0046875,
2010-11-03, 01:28:04,VALID,999.076,VALID,0,VALID,91.0671,VALID,0,VALID,23.5256,VALID,137,VALID,0.435547,
2010-11-03, 01:29:04,VALID,999.08,VALID,0,VALID,91.2197,VALID,0,VALID,23.5256,VALID,137,VALID,0.361719,
2010-11-03, 01:30:04,VALID,999.059,VALID,0,VALID,91.3113,VALID,0,VALID,23.5256,VALID,137,VALID,0.461328,
2010-11-03, 01:31:04,VALID,999.005,VALID,0,VALID,91.3418,VALID,0,VALID,23.5256,VALID,137,VALID,0.257422,
2010-11-03, 01:32:04,VALID,998.971,VALID,0,VALID,91.3266,VALID,0,VALID,23.5256,VALID,137,VALID,0.15,
2010-11-03, 01:33:04,VALID,998.926,VALID,0,VALID,91.3647,VALID,0,VALID,23.5256,VALID,137,VALID,0.114844,
2010-11-03, 01:34:04,VALID,998.911,VALID,0,VALID,91.3647,VALID,0,VALID,23.4848,VALID,137,VALID,0.2,
2010-11-03, 01:35:04,VALID,998.942,VALID,0,VALID,91.3876,VALID,0.112286,VALID,23.4848,VALID,137,VALID,0.486328,
2010-11-03, 01:36:04,VALID,998.953,VALID,0,VALID,91.4334,VALID,0,VALID,23.4866,VALID,137,VALID,0.583594,
2010-11-03, 01:37:04,VALID,998.939,VALID,0,VALID,91.4868,VALID,0,VALID,23.4653,VALID,137,VALID,0.56875,
2010-11-03, 01:38:04,VALID,998.941,VALID,0,VALID,91.5097,VALID,0,VALID,23.4458,VALID,137,VALID,0.547656,
2010-11-03, 01:39:04,VALID,998.968,VALID,0,VALID,91.6165,VALID,0,VALID,23.4458,VALID,117,VALID,0.694922,
2010-11-03, 01:40:04,VALID,998.949,VALID,0,VALID,91.708,VALID,0,VALID,23.4458,VALID,98,VALID,0.680078,
2010-11-03, 01:41:04,VALID,998.96,VALID,0,VALID,91.7157,VALID,0,VALID,23.428,VALID,68,VALID,0.866406,
2010-11-03, 01:42:04,VALID,998.968,VALID,0,VALID,91.5707,VALID,0,VALID,23.3695,VALID,57,VALID,0.946875,
2010-11-03, 01:43:04,VALID,998.926,VALID,0,VALID,91.4868,VALID,0,VALID,23.2915,VALID,49,VALID,0.887109,
2010-11-03, 01:44:04,VALID,998.919,VALID,0,VALID,91.4334,VALID,0,VALID,23.2312,VALID,49,VALID,0.745313,
2010-11-03, 01:45:04,VALID,998.89,VALID,0,VALID,91.3342,VALID,0,VALID,23.1726,VALID,49,VALID,0.684766,
2010-11-03, 01:46:04,VALID,998.885,VALID,0,VALID,91.2579,VALID,0,VALID,23.1159,VALID,49,VALID,0.671484,
2010-11-03, 01:47:04,VALID,998.84,VALID,0,VALID,91.3189,VALID,0,VALID,23.0573,VALID,49,VALID,0.560156,
2010-11-03, 01:48:04,VALID,998.849,VALID,0,VALID,91.4334,VALID,0,VALID,22.9971,VALID,49,VALID,0.532812,
2010-11-03, 01:49:04,VALID,998.813,VALID,0,VALID,91.6546,VALID,0,VALID,22.9988,VALID,49,VALID,0.449219,
2010-11-03, 01:50:04,VALID,998.793,VALID,0,VALID,91.8225,VALID,0,VALID,22.9793,VALID,49,VALID,0.352344,
2010-11-03, 01:51:04,VALID,998.758,VALID,0,VALID,91.9598,VALID,0,VALID,22.9385,VALID,49,VALID,0.277734,
2010-11-03, 01:52:04,VALID,998.735,VALID,0,VALID,92.1048,VALID,0,VALID,22.9208,VALID,49,VALID,0.372656,
2010-11-03, 01:53:04,VALID,998.729,VALID,0,VALID,92.2726,VALID,0,VALID,22.9598,VALID,49,VALID,0.391797,
2010-11-03, 01:54:04,VALID,998.719,VALID,0,VALID,92.4176,VALID,0,VALID,22.9598,VALID,49,VALID,0.450781,
2010-11-03, 01:55:04,VALID,998.75,VALID,0,VALID,92.5473,VALID,0,VALID,22.9988,VALID,49,VALID,0.448047,
2010-11-03, 01:56:04,VALID,998.748,VALID,0,VALID,92.6846,VALID,0,VALID,23.0378,VALID,49,VALID,0.421875,
2010-11-03, 01:57:04,VALID,998.761,VALID,0,VALID,92.7762,VALID,0,VALID,23.0556,VALID,49,VALID,0.399219,
2010-11-03, 01:58:04,VALID,998.797,VALID,0,VALID,92.8448,VALID,0,VALID,23.0573,VALID,49,VALID,0.442187,
2010-11-03, 01:59:04,VALID,998.771,VALID,0,VALID,92.9059,VALID,0,VALID,23.0573,VALID,49,VALID,0.475391,
2010-11-03, 02:00:04,VALID,998.785,VALID,0,VALID,92.9364,VALID,0,VALID,23.0769,VALID,49,VALID,0.404297,
2010-11-03, 02:01:04,VALID,998.783,VALID,0,VALID,92.9822,VALID,0,VALID,23.0556,VALID,49,VALID,0.295312,
2010-11-03, 02:02:04,VALID,998.786,VALID,0,VALID,92.9745,VALID,0,VALID,22.9793,VALID,49,VALID,0.434766,
2010-11-03, 02:03:04,VALID,998.791,VALID,0,VALID,92.9898,VALID,0,VALID,22.9598,VALID,49,VALID,0.496875,
2010-11-03, 02:04:04,VALID,998.823,VALID,0,VALID,93.0051,VALID,0,VALID,22.919,VALID,49,VALID,0.599219,
2010-11-03, 02:05:04,VALID,998.833,VALID,0,VALID,93.0127,VALID,0,VALID,22.9403,VALID,49,VALID,0.524609,
2010-11-03, 02:06:04,VALID,998.817,VALID,0,VALID,93.0432,VALID,0,VALID,22.919,VALID,49,VALID,0.403125,
2010-11-03, 02:07:04,VALID,998.814,VALID,0,VALID,93.0737,VALID,0,VALID,22.9598,VALID,49,VALID,0.298047,
2010-11-03, 02:08:04,VALID,998.791,VALID,0,VALID,93.0737,VALID,0,VALID,22.8818,VALID,49,VALID,0.322266,
2010-11-03, 02:09:04,VALID,998.793,VALID,0,VALID,93.0585,VALID,0,VALID,22.8232,VALID,49,VALID,0.331641,
2010-11-03, 02:10:04,VALID,998.792,VALID,0,VALID,93.0585,VALID,0,VALID,22.7825,VALID,49,VALID,0.425391,
2010-11-03, 02:11:04,VALID,998.768,VALID,0,VALID,93.1271,VALID,0,VALID,22.8215,VALID,49,VALID,0.549219,
2010-11-03, 02:12:04,VALID,998.776,VALID,0,VALID,93.1424,VALID,0,VALID,22.8427,VALID,49,VALID,0.619922,
2010-11-03, 02:13:04,VALID,998.765,VALID,0,VALID,93.1577,VALID,0,VALID,22.8215,VALID,49,VALID,0.614844,
2010-11-03, 02:14:04,VALID,998.762,VALID,0,VALID,93.1805,VALID,0,VALID,22.8623,VALID,49,VALID,0.627734,
2010-11-03, 02:15:04,VALID,998.742,VALID,0,VALID,93.1958,VALID,0,VALID,22.8215,VALID,49,VALID,0.777734,
2010-11-03, 02:16:04,VALID,998.757,VALID,0,VALID,93.2111,VALID,0,VALID,22.8232,VALID,47,VALID,0.877734,
2010-11-03, 02:17:04,VALID,998.769,VALID,0,VALID,93.2263,VALID,0,VALID,22.8037,VALID,47,VALID,0.723047,
2010-11-03, 02:18:04,VALID,998.755,VALID,0,VALID,93.2416,VALID,0,VALID,22.7825,VALID,47,VALID,0.582031,
2010-11-03, 02:19:04,VALID,998.75,VALID,0,VALID,93.2263,VALID,0,VALID,22.7647,VALID,47,VALID,0.516797,
2010-11-03, 02:20:04,VALID,998.759,VALID,0,VALID,93.2263,VALID,0,VALID,22.7045,VALID,47,VALID,0.624219,
2010-11-03, 02:21:04,VALID,998.788,VALID,0,VALID,93.2187,VALID,0,VALID,22.6867,VALID,47,VALID,0.663672,
2010-11-03, 02:22:04,VALID,998.789,VALID,0,VALID,93.2568,VALID,0,VALID,22.6655,VALID,47,VALID,0.807031,
2010-11-03, 02:23:04,VALID,998.78,VALID,0,VALID,93.2797,VALID,0,VALID,22.6672,VALID,47,VALID,0.804688,
2010-11-03, 02:24:04,VALID,998.769,VALID,0,VALID,93.2645,VALID,0,VALID,22.6655,VALID,47,VALID,0.744922,
2010-11-03, 02:25:04,VALID,998.761,VALID,0,VALID,93.2797,VALID,0,VALID,22.6655,VALID,47,VALID,0.568359,
2010-11-03, 02:26:04,VALID,998.749,VALID,0,VALID,93.2874,VALID,0,VALID,22.6672,VALID,47,VALID,0.273047,
2010-11-03, 02:27:04,VALID,998.752,VALID,0,VALID,93.295,VALID,0,VALID,22.6264,VALID,47,VALID,0.169531,
2010-11-03, 02:28:04,VALID,998.698,VALID,0,VALID,93.3255,VALID,0,VALID,22.5874,VALID,47,VALID,0,
2010-11-03, 02:29:04,VALID,998.7,VALID,0,VALID,93.295,VALID,0,VALID,22.5679,VALID,47,VALID,0,
2010-11-03, 02:30:04,VALID,998.676,VALID,0,VALID,93.295,VALID,0,VALID,22.5306,VALID,47,VALID,0,
2010-11-03, 02:31:04,VALID,998.674,VALID,0,VALID,93.295,VALID,0,VALID,22.5306,VALID,47,VALID,0,
2010-11-03, 02:32:04,VALID,998.66,VALID,0,VALID,93.295,VALID,0,VALID,22.5111,VALID,47,VALID,0.140625,
2010-11-03, 02:33:04,VALID,998.685,VALID,0,VALID,93.3026,VALID,0,VALID,22.5094,VALID,47,VALID,0.294531,
2010-11-03, 02:34:04,VALID,998.661,VALID,0,VALID,93.3179,VALID,0,VALID,22.5501,VALID,47,VALID,0.261719,
2010-11-03, 02:35:04,VALID,998.63,VALID,0,VALID,93.3179,VALID,0,VALID,22.5696,VALID,47,VALID,0.247266,
2010-11-03, 02:36:04,VALID,998.645,VALID,0,VALID,93.3331,VALID,0,VALID,22.5696,VALID,47,VALID,0.298828,
2010-11-03, 02:37:04,VALID,998.602,VALID,0,VALID,93.3637,VALID,0,VALID,22.6087,VALID,47,VALID,0.248047,
2010-11-03, 02:38:04,VALID,998.634,VALID,0,VALID,93.3789,VALID,0,VALID,22.6282,VALID,47,VALID,0.279687,
2010-11-03, 02:39:04,VALID,998.604,VALID,0,VALID,93.3942,VALID,0,VALID,22.6672,VALID,47,VALID,0.188672,
2010-11-03, 02:40:04,VALID,998.579,VALID,0,VALID,93.4018,VALID,0,VALID,22.6867,VALID,47,VALID,0,
2010-11-03, 02:41:04,VALID,998.584,VALID,0,VALID,93.4323,VALID,0,VALID,22.7062,VALID,47,VALID,0,
2010-11-03, 02:42:04,VALID,998.593,VALID,0,VALID,93.44,VALID,0,VALID,22.7257,VALID,47,VALID,0,
2010-11-03, 02:43:04,VALID,998.555,VALID,0,VALID,93.4476,VALID,0,VALID,22.7452,VALID,47,VALID,0,
2010-11-03, 02:44:04,VALID,998.619,VALID,0,VALID,93.4628,VALID,0,VALID,22.7452,VALID,47,VALID,0.0195313,
2010-11-03, 02:45:04,VALID,998.594,VALID,0,VALID,93.4705,VALID,0,VALID,22.7435,VALID,47,VALID,0.146875,
2010-11-03, 02:46:04,VALID,998.583,VALID,0,VALID,93.4781,VALID,0,VALID,22.7647,VALID,80,VALID,0.572266,
2010-11-03, 02:47:04,VALID,998.624,VALID,0,VALID,93.4934,VALID,0,VALID,22.685,VALID,114,VALID,0.814453,
2010-11-03, 02:48:04,VALID,998.615,VALID,0,VALID,93.501,VALID,0,VALID,22.763,VALID,114,VALID,0.762109,
2010-11-03, 02:49:04,VALID,998.591,VALID,0,VALID,93.5163,VALID,0,VALID,22.8427,VALID,114,VALID,0.752734,
2010-11-03, 02:50:04,VALID,998.613,VALID,0,VALID,93.5086,VALID,0,VALID,22.9208,VALID,114,VALID,0.702344,
2010-11-03, 02:51:04,VALID,998.629,VALID,0,VALID,93.4934,VALID,0,VALID,22.9598,VALID,114,VALID,0.652734,
2010-11-03, 02:52:04,VALID,998.631,VALID,0,VALID,93.4781,VALID,0,VALID,22.9988,VALID,114,VALID,0.671484,
2010-11-03, 02:53:04,VALID,998.638,VALID,0,VALID,93.4476,VALID,0,VALID,23.0183,VALID,113,VALID,0.576953,
2010-11-03, 02:54:04,VALID,998.663,VALID,0,VALID,93.4323,VALID,0,VALID,23.0183,VALID,113,VALID,0.540234,
2010-11-03, 02:55:04,VALID,998.65,VALID,0,VALID,93.3866,VALID,0,VALID,23.0396,VALID,113,VALID,0.553516,
2010-11-03, 02:56:04,VALID,998.674,VALID,0,VALID,93.356,VALID,0,VALID,23.0591,VALID,113,VALID,0.701172,
2010-11-03, 02:57:04,VALID,998.664,VALID,0,VALID,93.3408,VALID,0,VALID,23.0573,VALID,113,VALID,0.738672,
2010-11-03, 02:58:04,VALID,998.688,VALID,0,VALID,93.2416,VALID,0,VALID,23.0573,VALID,113,VALID,0.787109,
2010-11-03, 02:59:04,VALID,998.672,VALID,0,VALID,93.1805,VALID,0,VALID,23.0591,VALID,113,VALID,0.727734,
2010-11-03, 03:00:04,VALID,998.651,VALID,0,VALID,93.0585,VALID,0,VALID,23.0396,VALID,120,VALID,0.699219,
2010-11-03, 03:01:04,VALID,998.656,VALID,0,VALID,92.9288,VALID,0,VALID,23.0396,VALID,126,VALID,0.609766,
2010-11-03, 03:02:04,VALID,998.661,VALID,0,VALID,92.7457,VALID,0,VALID,22.9988,VALID,126,VALID,0.622656,
2010-11-03, 03:03:04,VALID,998.688,VALID,0,VALID,92.5778,VALID,0,VALID,23.0006,VALID,126,VALID,0.493359,
2010-11-03, 03:04:04,VALID,998.689,VALID,0,VALID,92.4023,VALID,0,VALID,23.0201,VALID,126,VALID,0.554688,
2010-11-03, 03:05:04,VALID,998.676,VALID,0,VALID,92.1963,VALID,0,VALID,23.0006,VALID,126,VALID,0.726953,
2010-11-03, 03:06:04,VALID,998.702,VALID,0,VALID,91.998,VALID,0,VALID,23.0006,VALID,127,VALID,1.0125,
2010-11-03, 03:07:04,VALID,998.715,VALID,0,VALID,91.7691,VALID,0,VALID,22.9793,VALID,131,VALID,1.09648,
2010-11-03, 03:08:04,VALID,998.716,VALID,0,VALID,91.6775,VALID,0,VALID,23.0591,VALID,131,VALID,1.27695,
2010-11-03, 03:09:04,VALID,998.731,VALID,0,VALID,91.5326,VALID,0.112286,VALID,23.0751,VALID,123,VALID,0.819141,
2010-11-03, 03:10:04,VALID,998.729,VALID,0,VALID,91.3113,VALID,0,VALID,23.0946,VALID,123,VALID,0.827734,
2010-11-03, 03:11:04,VALID,998.76,VALID,0,VALID,91.174,VALID,0,VALID,23.1354,VALID,123,VALID,0.905859,
2010-11-03, 03:12:04,VALID,998.751,VALID,0,VALID,91.0671,VALID,0,VALID,23.1336,VALID,123,VALID,0.921875,
2010-11-03, 03:13:04,VALID,998.778,VALID,0,VALID,90.9146,VALID,0,VALID,23.1744,VALID,123,VALID,0.733203,
2010-11-03, 03:14:04,VALID,998.757,VALID,0,VALID,90.8154,VALID,0.112286,VALID,23.1744,VALID,123,VALID,0.774609,
2010-11-03, 03:15:04,VALID,998.722,VALID,0,VALID,90.7467,VALID,0,VALID,23.1531,VALID,123,VALID,0.542188,
2010-11-03, 03:16:04,VALID,998.688,VALID,0,VALID,90.6475,VALID,0,VALID,23.1336,VALID,123,VALID,0.361719,
2010-11-03, 03:17:04,VALID,998.699,VALID,0,VALID,90.6933,VALID,0,VALID,23.1531,VALID,123,VALID,0.332812,
2010-11-03, 03:18:04,VALID,998.718,VALID,0,VALID,90.6933,VALID,0,VALID,23.1531,VALID,123,VALID,0.167578,
2010-11-03, 03:19:04,VALID,998.704,VALID,0,VALID,90.7009,VALID,0,VALID,23.1141,VALID,123,VALID,0.00195313,
2010-11-03, 03:20:04,VALID,998.706,VALID,0,VALID,90.7009,VALID,0.112286,VALID,23.1141,VALID,123,VALID,0.3,
2010-11-03, 03:21:04,VALID,998.724,VALID,0,VALID,90.7696,VALID,0,VALID,23.1159,VALID,123,VALID,0.525781,
2010-11-03, 03:22:04,VALID,998.727,VALID,0,VALID,90.8383,VALID,0,VALID,23.1354,VALID,123,VALID,0.632813,
2010-11-03, 03:23:04,VALID,998.727,VALID,0,VALID,90.884,VALID,0,VALID,23.1549,VALID,116,VALID,0.743359,
2010-11-03, 03:24:04,VALID,998.717,VALID,0,VALID,90.8306,VALID,0,VALID,23.1744,VALID,109,VALID,0.824219,
2010-11-03, 03:25:04,VALID,998.729,VALID,0,VALID,90.7085,VALID,0,VALID,23.1939,VALID,106,VALID,0.835156,
2010-11-03, 03:26:04,VALID,998.677,VALID,0,VALID,90.6094,VALID,0,VALID,23.2134,VALID,94,VALID,0.866797,
2010-11-03, 03:27:04,VALID,998.711,VALID,0,VALID,90.4873,VALID,0,VALID,23.2329,VALID,94,VALID,0.902344,
2010-11-03, 03:28:05,VALID,998.688,VALID,0,VALID,90.3652,VALID,0,VALID,23.2329,VALID,93,VALID,1.04609,
2010-11-03, 03:29:05,VALID,998.678,VALID,0,VALID,90.3423,VALID,0,VALID,23.2524,VALID,80,VALID,0.841797,
2010-11-03, 03:30:05,VALID,998.682,VALID,0,VALID,90.1745,VALID,0,VALID,23.2329,VALID,80,VALID,0.891406,
2010-11-03, 03:31:05,VALID,998.657,VALID,0,VALID,90.0753,VALID,0,VALID,23.2134,VALID,80,VALID,0.88125,
2010-11-03, 03:32:05,VALID,998.642,VALID,0,VALID,90.1363,VALID,0,VALID,23.2134,VALID,80,VALID,0.935156,
2010-11-03, 03:33:05,VALID,998.643,VALID,0,VALID,90.3042,VALID,0,VALID,23.1939,VALID,80,VALID,1.00625,
2010-11-03, 03:34:05,VALID,998.642,VALID,0,VALID,90.3957,VALID,0.112286,VALID,23.1726,VALID,62,VALID,0.976172,
2010-11-03, 03:35:05,VALID,998.663,VALID,0,VALID,90.4415,VALID,0,VALID,23.1531,VALID,62,VALID,0.926172,
2010-11-03, 03:36:05,VALID,998.658,VALID,0,VALID,90.5407,VALID,0,VALID,23.1531,VALID,62,VALID,0.781641,
2010-11-03, 03:37:05,VALID,998.651,VALID,0,VALID,90.6094,VALID,0.112286,VALID,23.1531,VALID,60,VALID,0.689062,
2010-11-03, 03:38:05,VALID,998.671,VALID,0,VALID,90.7925,VALID,0,VALID,23.1549,VALID,60,VALID,0.726953,
2010-11-03, 03:39:05,VALID,998.628,VALID,0,VALID,90.7925,VALID,0,VALID,23.1336,VALID,60,VALID,0.650781,
2010-11-03, 03:40:05,VALID,998.635,VALID,0,VALID,90.8001,VALID,0,VALID,23.1159,VALID,60,VALID,0.703906,
2010-11-03, 03:41:05,VALID,998.697,VALID,0,VALID,90.8688,VALID,0,VALID,23.1371,VALID,60,VALID,0.789844,
2010-11-03, 03:42:05,VALID,998.681,VALID,0,VALID,90.8459,VALID,0,VALID,23.1159,VALID,64,VALID,0.837891,
2010-11-03, 03:43:05,VALID,998.689,VALID,0,VALID,90.7314,VALID,0.112286,VALID,23.0946,VALID,64,VALID,0.864062,
2010-11-03, 03:44:05,VALID,998.688,VALID,0,VALID,90.6399,VALID,0,VALID,23.1159,VALID,73,VALID,0.847656,
2010-11-03, 03:45:05,VALID,998.735,VALID,0,VALID,90.6551,VALID,0,VALID,23.1141,VALID,73,VALID,0.681641,